Regional Weather Roundup
Issued by NWS

Home | Current Version | Previous Version | Text Only | Print | Product List | Glossary On
Versions: 1 2 3 4 5 6 7 8 9 10 11 12 13 14 15 16 17 18 19 20 21 22 23 24 25 26 27 28 29 30 31 32 33 34 35 36 37 38 39 40 41 42 43 44 45 46 47 48 49 50
000
ASUS43 KLMK 280910
RWRKY
KENTUCKY REGIONAL WEATHER ROUNDUP
NATIONAL WEATHER SERVICE LOUISVILLE KY
500 AM EDT SAT MAR 28 2015

NOTE "FAIR" INDICATES FEW OR NO CLOUDS BELOW 12,000 FEET
WITH NO SIGNIFICANT WEATHER AND/OR OBSTRUCTIONS TO VISIBILITY.

KYZ001>023-026-027-061>063-070>075-281000-
WESTERN AND SOUTH CENTRAL KENTUCKY

CITY           SKY/WX    TMP DP  RH WIND       PRES   REMARKS
PADUCAH        CLEAR     28  21  75 CALM      30.18S
HENDERSON      CLEAR     28  19  69 NE8       30.19S WCI  20
OWENSBORO      CLEAR     28  19  69 NE6       30.19S WCI  22
HOPKINSVILLE   CLEAR     27  20  73 N5        30.17S WCI  22
BOWLING GREEN  PTCLDY    29  18  63 N5        30.17R WCI  24
GLASGOW        CLOUDY    29  19  64 N10       30.15R WCI  20
$$

KYZ024-025-028>034-038-045-046-053-281000-
NORTH CENTRAL KENTUCKY

CITY           SKY/WX    TMP DP  RH WIND       PRES   REMARKS
LOUISVILLE/SDF PTCLDY    26  13  57 N9        30.17R WCI  17
LOUISVILLE/LOU CLEAR     25  13  60 N7        30.17R WCI  17
FORT KNOX      CLEAR     24   9  53 NW9       30.14R WCI  14
$$

KYZ035>037-039>044-047>052-055>060-089>105-281000-
NORTHEAST KENTUCKY

CITY           SKY/WX    TMP DP  RH WIND       PRES   REMARKS
LEXINGTON      CLOUDY    21  13  71 NW7       30.11S WCI  12
COVINGTON      CLEAR     21  13  71 N10       30.13R WCI  10
FRANKFORT      CLEAR     22  11  62 NW6       30.12S WCI  14
$$

KYZ054-064>069-076>088-106>120-281000-
SOUTHEAST KENTUCKY

CITY           SKY/WX    TMP DP  RH WIND       PRES   REMARKS
JACKSON        CLOUDY    25  18  74 CALM      30.05S
LONDON         CLOUDY    29  11  47 N8        30.07S WCI  21
SOMERSET       CLEAR     27  14  59 N7        30.12R WCI  19
MIDDLESBORO    CLOUDY    30  18  61 NW8       30.07R WCI  22
MONTICELLO     MOSUNNY   28  18  66 N7        30.14R WCI  21
$$



USA.gov is the U.S. government's official web portal to all federal, state and local government web resources and services.